User: anonymous   Login
Location: Unspecified
(0.0000°N, 0.0000°E)
Time: 20:54:44
(UTC+00:00)
Language:

USA 238 DEB - Orbit

View from above orbital plane
View from above orbital plane
View from above satellite
View from above satellite

Ground track
Ground track

The orbit data is extracted from the following two-line orbital elements,

1 38773U 12048P   18135.90731046 0.00000000  00000-0  00000-0 0    04
2 38773  63.4358 174.5195 0053000   6.9887 353.0113 13.40751587    04
Epoch (UTC): 15 May 2018 21:46:31
Eccentricity: 0.0053000
inclination: 63.4358°
perigee height: 1067 km
apogee height: 1146 km
right ascension of ascending node: 174.5195°
argument of perigee: 6.9887°
revolutions per day: 13.40751587
mean anomaly at epoch: 353.0113°
orbit number at epoch: 0

The dashed part of the orbit path shows where the satellite is in the earth's shadow,  

DLR